FREGAT DEB, 46111

Orbit data source: Space-Track

FREGAT DEB, 46111 is space debris in LEO originally from a launch on Mon, 18 Jul 2011 UTC launched from the Tyuratam Missile And Space Complex (TTMTR). Debris objects in space refer to the collection of defunct objects orbiting the Earth. Examples of debris include non-operational satellites, rocket bodies, and fragments generated from explosions, collisions, or faulty payload assembly.

Loading next visibility...
Identifier
46111, 2011-037JW
Orbit
LEO
Country
Flag of CISCIS
Related business
Manufacturer
Lavochkin
Mission
Spacecraft
Bus & Motor
Unknown
Mass
Unknown
Launch date (UTC)
2011-07-18 (14 years ago)
Launch vehicle
Unknown
Launch site
Tyuratam Missile And Space Complex (TTMTR)
Object type
Payload
Rocket body
Debris
Shape & HBR
Unknown shape, 0.1 m
Radar Cross Section
Small (<0.1 m²)

Expand to show TLE details & history
Last TLE update: 8 hours ago

TLE from 8 hours ago
0 FREGAT DEB
1 46111U 11037JW  25292.16325941  .00010285  00000-0  32847+0 0  9995
2 46111  50.7106 289.6563 1236130  86.0661 288.0137 10.14560679151315
Epoch: 2025-10-19T03:55Z
TLE epoch observation values (Epoch: 2025-10-19T03:55:05.613Z)
Latitude
0.00002°
Longitude
-157.00094°
Altitude
2,421.844 km
Speed
6.811 km/s
True Right ascension
19h 18m 37s
True Declination
0° 00' 00"
Sunlit
Object was in daylight at epoch
Visualization orbit readout
Latitude
Unknown
Longitude
Unknown
Altitude
Unknown
Speed
Unknown
Apparent Right ascension
Unknown
Apparent Declination
Unknown
Sunlit
N/A
Visualization observer readout
Local Sidereal Time
06:32:21
Azimuth
Unknown
Elevation
Unknown
Doppler factor
Unknown
Orbital elements
Apogee altitude
3,749.885 km
Perigee altitude
1,521.439 km
Semi-major axis
9,013.799 km
Eccentricity
0.12361
Inclination
50.7106°
RAAN
289.6563°
Arg. of periapsis
86.0661°
True anomaly
274.01°
Mean anomaly
288.0137°
Eccentric anomaly
281.06281°
Mean motion
2.53619 °/min
Orbital period
141.95 mins
BSTAR
0.32847
Loading maneuver chart data...
Computing Atmospheric mass density...
Loading historical data...
Loading historical data...
Loading historical data...
Loading historical data...
Loading historical data...
Loading historical data...
Loading historical data...

Documentation

Showing up to 5 results
|